Terminal Aerodrome Forecast
Issued by NWS Norman, OK

Home | Current Version | Previous Version | Text Only | Print | Product List | Glossary On
Versions: 1 2 3 4 5 6 7 8 9 10 11 12 13
000
FTUS44 KOUN 010521
TAFOKC
TAF
KOKC 010521Z 0106/0206 06005KT P6SM FEW250
     FM011000 13008KT P6SM FEW250
     FM011800 16012G17KT P6SM BKN250=

USA.gov is the U.S. government's official web portal to all federal, state and local government web resources and services.